Home > Weather > Jacksonville > Past weeks

Flag for USA Weather for the Past 2 Weeks in Jacksonville, Florida, USA

Now
88 °F

Scattered clouds.


Feels Like: 88 °F
Forecast: 68 / 89 °F
Wind: 8 mph from West

Location: Jacksonville Naval Air Station

Current Time: Apr 28, 2016 at 3:56:40 PM

Latest Report: Apr 28, 2016 at 2:53 PM


Visibility: 9 mi

Pressure: 29.95 "Hg

Humidity: 40%

Dew Point: 61 °F

Location of JacksonvilleLocation

Historic Weather in Jacksonville — Graph

°F

Jacksonville Temperature Yesterday

Maximum temperature yesterday: 89 °F (at 3:53 PM)
Minimum temperature yesterday: 72 °F (at 1:53 AM)
Average temperature yesterday: 79 °F

High & Low Weather Summary for the Past Weeks

 TemperatureHumidityPressure
High89 °F (Apr 27, 3:53 PM)91% (Apr 23, 4:53 AM)30.30 "Hg (Apr 23, 4:53 AM)
Low57 °F (Apr 19, 5:53 AM)27% (Apr 19, 6:53 PM)29.85 "Hg (Apr 27, 5:53 PM)
Average73 °F65%30.06 "Hg
* Reported Apr 13 1:53 PM — Apr 28 1:53 PM, Jacksonville, Weather by CustomWeather, © 2016

Note: Actual official high and low records may vary slightly from our data, if they occured in-between our weather recording intervals... More about our weather records

Advertising

Jacksonville Weather History for the Previous 24 Hours

Scroll right to see more
 ConditionsComfort  
Time TempWeatherWind HumidityBarometerVisibility
1:53 PM
Thu, Apr 28
89 °FScattered clouds.10 mph36%29.96 "Hg10 mi
12:53 PM87 °FPartly sunny.12 mph40%29.98 "Hg10 mi
11:53 AM84 °FPartly sunny.10 mph51%30.01 "Hg10 mi
10:53 AM80 °FScattered clouds.10 mph60%30.00 "Hg10 mi
9:53 AM77 °FScattered clouds.9 mph64%29.99 "Hg10 mi
8:53 AM74 °FPartly sunny.8 mph69%29.98 "Hg10 mi
7:53 AM73 °FBroken clouds.6 mph76%29.97 "Hg10 mi
6:53 AM73 °FPartly cloudy.10 mph79%29.94 "Hg10 mi
5:53 AM74 °FPassing clouds.9 mph79%29.93 "Hg10 mi
4:53 AM73 °FPassing clouds.6 mph79%29.91 "Hg10 mi
4:01 AM74 °FPassing clouds.8 mph79%29.92 "Hg10 mi
2:53 AM74 °FClear.9 mph79%29.91 "Hg10 mi
1:53 AM75 °FClear.7 mph76%29.93 "Hg10 mi
12:53 AM75 °FClear.5 mph71%29.93 "Hg10 mi
11:53 PM
Wed, Apr 27
76 °FClear.6 mph67%29.95 "Hg10 mi
10:53 PM77 °FPartly cloudy.9 mph64%29.94 "Hg10 mi
9:53 PM78 °FPartly cloudy.10 mph58%29.93 "Hg10 mi
8:53 PM79 °FBroken clouds.No wind56%29.91 "Hg10 mi
7:53 PM82 °FBroken clouds.17 mph49%29.87 "Hg10 mi
6:53 PM84 °FBroken clouds.15 mph45%29.86 "Hg10 mi
5:53 PM86 °FScattered clouds.14 mph48%29.85 "Hg10 mi
4:53 PM89 °FBroken clouds.9 mph35%29.86 "Hg10 mi
3:53 PM89 °FBroken clouds.7 mph36%29.87 "Hg9 mi
Weather by CustomWeather, © 2016

See weather overviewHow to use our weather pages